Theta_e
307 306 306 306 305 303 302 302 298 307 306 297 293 292 293 295 295 298 296 294 293 291 291 290 290 289 292 297 297 291 294 291 285 287 293 294 292 290 290 283 281 285 283 283
306 305 305 305 304 303 300 297 298 307 303 292 290 291 291 293 293 295 294 292 293 293 291 288 291 292 296 297 296 293 295 289 283 284 288 291 289 290 290 290 288 283 280 284
306 305 305 305 304 303 301 295 292 295 295 293 290 288 288 290 297 295 294 293 294 291 290 292 290 290 294 295 294 297 296 290 286 281 284 289 286 289 290 289 283 285 285 287
306 304 305 305 304 303 299 294 291 291 287 288 289 289 289 288 289 293 294 291 291 289 287 288 288 290 291 293 295 294 293 286 288 289 290 289 288 288 288 287 289 284 287 288
305 304 304 305 304 301 298 292 291 292 290 290 289 289 288 288 289 290 289 289 290 290 287 289 287 289 289 288 292 292 294 286 288 285 289 289 287 289 290 289 290 289 289 289
305 304 304 304 304 299 294 295 295 294 289 288 287 287 288 289 289 291 292 291 289 288 289 292 293 293 293 292 290 290 290 288 285 281 286 286 283 288 289 290 292 292 288 293
305 303 303 303 303 299 295 294 293 292 285 288 287 288 289 287 288 287 291 292 289 292 295 295 295 293 292 292 291 293 288 287 286 282 284 277 288 294 294 292 293 295 295 296
305 303 303 303 303 301 297 295 293 291 286 288 286 288 288 290 290 288 289 291 294 295 292 287 286 288 289 290 291 290 291 288 283 281 282 286 288 292 292 291 291 296 295 296
306 304 303 302 303 302 298 296 295 293 287 285 289 288 288 286 286 287 288 293 296 294 291 288 281 280 284 285 288 293 289 289 285 284 280 278 288 294 298 296 286 297 296 296
306 304 303 302 302 302 299 297 296 293 286 289 291 287 285 290 288 285 287 289 288 294 288 284 282 282 288 283 283 284 286 285 282 282 280 286 294 295 299 284 288 297 297 297
306 304 303 302 302 302 299 297 297 294 289 289 290 292 289 289 288 284 287 286 288 289 286 285 285 284 286 284 287 285 283 284 284 285 282 280 297 296 289 295 299 298 298 299
307 305 303 302 302 302 300 295 297 296 290 290 295 294 295 293 293 289 289 287 288 291 289 288 287 285 287 285 281 292 285 290 286 288 288 297 299 297 299 299 297 298 298 299
307 305 303 302 302 302 301 297 297 295 290 289 289 290 294 296 296 296 287 290 292 292 297 289 288 284 288 282 284 287 290 293 289 288 291 293 296 298 299 300 299 301 301 300
307 305 303 302 302 302 302 297 297 296 290 284 288 295 294 298 297 295 295 294 295 295 296 291 288 286 292 288 289 287 290 291 289 289 293 293 295 297 299 300 301 301 301 299
307 306 303 302 302 302 301 298 297 298 291 285 287 293 295 296 296 295 295 293 291 291 290 289 287 291 291 291 290 287 292 288 286 285 291 291 292 298 302 300 299 299 298 296
307 306 303 302 301 301 296 289 296 298 296 288 283 294 294 296 296 295 293 291 290 290 289 290 293 296 292 287 286 292 292 294 293 289 294 295 299 302 301 299 298 298 296 294
306 303 301 301 301 299 292 289 296 298 297 289 285 287 294 295 295 297 295 293 292 291 290 291 293 293 293 288 285 289 291 291 293 297 299 296 298 298 300 299 297 294 293 293
302 300 299 301 301 300 295 298 300 300 294 292 285 286 290 295 293 292 299 292 292 291 292 294 291 292 291 286 289 289 290 291 294 296 301 300 299 298 297 296 293 290 290 291
299 298 301 300 297 294 295 302 302 300 294 288 287 283 283 294 293 294 295 296 291 297 291 291 291 288 284 287 286 287 289 289 291 296 299 297 296 295 293 290 291 289 289 290
297 297 295 292 295 300 304 299 293 291 293 292 287 290 286 291 291 290 291 293 289 286 290 292 288 287 289 290 290 290 291 292 294 293 294 295 293 291 290 289 290 290 289 290
293 288 289 292 298 295 291 287 288 289 286 290 289 290 288 293 287 288 291 288 289 286 287 287 287 285 286 289 289 291 292 293 294 296 298 297 295 291 290 290 290 290 290 291
291 292 295 294 291 288 284 284 288 287 285 290 288 290 290 292 294 290 292 288 288 284 291 288 284 287 288 289 289 290 291 292 293 296 298 296 294 291 288 289 288 289 291 292
296 292 289 288 288 283 282 281 285 284 288 291 291 288 289 291 291 289 288 285 284 291 286 284 285 287 289 289 289 289 291 293 294 296 297 296 294 292 290 288 288 290 291 292
290 288 282 284 283 285 287 285 286 288 288 288 288 286 288 289 287 289 284 287 289 282 279 280 286 287 287 289 289 289 289 291 293 296 296 295 294 292 290 290 291 291 289 290
289 289 282 283 289 288 288 288 288 289 289 289 287 290 290 286 286 284 283 281 278 279 278 282 286 287 286 288 288 289 289 291 293 296 295 294 293 293 293 293 292 291 290 289
290 288 284 286 285 285 287 288 289 291 290 290 291 287 283 281 282 280 276 276 275 280 283 286 287 286 287 288 289 290 291 292 292 296 295 294 293 293 293 294 293 291 290 288
287 285 288 287 288 288 289 290 291 292 290 287 288 282 280 285 280 276 280 279 281 284 286 286 287 287 288 289 290 290 291 292 293 297 295 294 295 295 294 291 293 292 292 291
Wind_Speed
20 22 24 25 27 31 5 2 2 4 2 1 1 2 1 4 5 1 4 4 8 7 5 5 8 10 9 5 8 6 4 4 9 13 11 7 8 10 10 7 7 7 11 20
19 21 22 24 25 24 5 3 3 2 2 0 2 3 4 4 4 3 2 3 3 1 4 5 8 8 3 6 9 7 6 5 7 7 5 4 6 11 10 9 4 15 12 14
18 19 21 24 24 22 2 3 4 2 4 2 2 4 4 4 2 5 3 4 1 2 4 7 6 3 1 0 2 3 4 6 12 14 10 1 6 9 12 14 10 15 18 30
17 19 20 21 24 20 1 4 3 2 5 1 3 2 3 5 5 1 2 3 3 2 5 6 8 5 5 6 5 6 5 13 16 20 22 21 24 26 24 22 23 19 22 24
13 16 19 20 23 16 4 3 3 1 4 4 3 2 3 4 3 3 4 6 5 3 7 10 16 17 15 15 8 8 6 11 12 15 13 16 19 25 25 26 27 25 27 27
11 13 14 16 17 11 3 2 0 2 2 1 3 3 2 1 3 7 10 7 8 11 16 12 13 13 15 14 11 9 5 6 3 12 8 11 14 25 23 22 19 17 18 18
8 10 12 12 12 8 0 1 1 2 4 3 5 3 4 11 10 12 11 12 12 4 12 16 16 20 22 22 24 20 16 13 7 10 10 11 8 3 5 7 11 14 16 18
8 7 10 10 9 5 2 1 1 1 5 4 11 8 8 9 10 10 12 13 8 10 8 8 8 4 4 4 8 17 20 15 6 5 9 13 15 8 2 6 12 7 11 9
6 7 8 8 8 4 2 1 1 0 3 3 4 5 6 6 5 5 4 6 8 3 3 3 4 4 5 3 1 4 9 10 4 4 6 4 2 2 3 2 13 6 9 16
7 7 8 7 7 5 1 1 3 1 3 4 2 4 4 2 2 5 5 5 5 2 1 3 2 4 7 4 5 5 3 4 10 9 7 7 5 3 4 4 6 12 19 20
8 7 8 8 7 6 1 0 4 2 3 9 7 4 5 5 4 3 4 5 2 2 2 3 3 3 3 4 5 2 2 4 2 4 6 6 3 2 6 13 19 17 23 21
9 8 8 8 7 7 1 2 3 4 3 7 6 17 19 19 14 2 2 3 3 2 2 0 3 3 3 5 4 3 3 3 4 5 6 13 17 16 15 16 18 22 17 17
11 9 8 8 8 8 5 2 1 2 3 6 4 5 2 7 15 13 4 3 4 3 2 1 2 5 2 3 3 5 4 3 5 8 2 14 21 19 17 19 18 18 21 20
13 10 8 8 9 9 7 2 1 1 3 4 5 3 7 4 7 14 17 7 1 2 2 2 3 3 4 3 4 7 7 8 7 12 16 15 15 15 21 23 19 22 20 24
14 10 7 7 9 8 4 3 5 6 3 3 7 14 2 4 6 10 12 13 10 4 3 4 3 2 3 3 3 4 1 3 3 7 19 18 20 24 25 24 20 22 25 23
15 7 4 5 8 4 1 2 2 6 5 2 4 4 4 5 5 7 7 7 6 4 4 4 4 5 4 3 3 4 15 17 12 8 17 21 24 21 21 22 26 23 14 17
10 4 2 7 7 3 3 1 2 7 3 2 4 4 2 5 3 1 3 8 3 3 2 4 3 2 4 2 3 18 21 20 22 22 18 18 16 22 22 23 19 16 18 17
6 2 4 8 8 5 5 5 11 7 2 2 3 5 4 3 3 3 2 3 3 5 3 3 0 2 1 3 17 20 20 21 18 21 20 18 19 21 23 14 15 18 13 13
5 3 10 1 2 3 3 4 15 2 2 2 1 3 4 3 2 2 2 2 3 3 3 1 1 2 5 11 16 19 20 15 18 20 20 20 20 22 18 14 15 13 13 12
2 1 2 3 3 4 12 2 4 3 4 3 3 2 4 2 2 2 3 1 2 2 1 3 1 3 2 9 11 14 16 18 19 22 21 24 22 20 12 14 13 12 13 14
2 3 2 2 3 1 1 3 3 3 3 4 4 5 4 0 3 3 1 3 1 3 1 1 2 2 12 17 20 18 17 19 19 19 20 20 18 18 16 14 14 13 13 13
3 1 2 1 2 2 4 4 3 4 4 4 4 3 4 1 2 3 1 3 2 3 3 1 2 3 16 17 21 21 19 20 21 21 22 21 19 16 12 12 14 14 14 12
2 1 3 3 4 5 5 7 4 3 4 4 3 1 0 1 1 3 2 3 3 5 2 3 2 10 13 18 16 20 21 22 22 22 22 19 18 15 14 14 14 13 13 13
4 5 5 6 5 5 4 3 3 2 2 1 1 1 1 2 2 1 3 3 3 2 3 4 7 14 19 18 16 16 20 21 21 21 22 20 18 16 15 14 14 14 14 15
4 4 5 6 2 1 2 2 2 2 2 2 3 3 1 2 1 2 2 3 4 3 3 5 9 16 16 17 17 17 17 17 17 18 17 18 17 15 15 15 14 15 15 15
3 4 3 1 3 3 3 2 2 2 2 2 1 3 3 3 1 3 3 1 0 3 5 8 11 13 14 15 16 16 15 15 15 15 15 15 16 15 14 13 14 14 13 14
4 3 2 1 1 3 3 2 2 2 2 2 2 3 2 2 3 2 2 1 2 6 7 7 10 12 14 14 15 15 16 16 15 15 15 13 14 14 14 16 15 13 12 11
Wind_Direction
346 347 347 350 353 347 26 352 263 15 317 345 3 230 267 316 271 188 268 256 249 243 221 235 235 248 237 176 171 201 194 229 263 275 269 261 249 245 221 233 198 233 278 276
348 347 348 352 356 2 323 2 292 11 297 13 325 315 275 269 268 234 264 269 246 202 224 260 245 254 316 181 183 191 177 208 281 276 168 149 210 200 207 230 253 242 263 268
351 348 349 350 355 358 355 346 336 357 50 34 45 332 276 286 294 267 277 274 238 232 244 233 271 243 345 269 203 143 151 243 244 257 282 273 250 219 220 247 257 265 250 279
349 350 351 352 352 352 25 12 55 9 319 50 334 232 291 280 280 335 289 253 240 260 267 271 250 263 286 256 243 266 250 253 252 258 265 265 266 267 266 255 253 254 271 274
347 351 353 356 353 347 73 6 345 122 281 292 286 209 239 279 297 278 264 258 297 287 259 257 281 289 277 265 259 218 197 260 253 260 262 258 260 262 258 256 257 260 262 266
343 349 353 4 4 5 57 47 321 263 235 218 256 227 249 308 348 274 263 273 319 293 291 292 282 270 260 249 241 233 212 221 232 262 278 280 266 254 255 255 247 245 252 271
330 348 341 3 16 58 17 67 275 263 275 233 235 267 279 279 280 261 280 288 290 293 325 303 270 255 254 248 243 234 240 244 241 270 280 247 254 305 255 256 259 240 262 275
317 338 328 346 4 65 47 98 237 246 277 277 285 269 259 281 282 272 267 287 278 319 299 286 293 277 233 209 224 226 224 227 234 237 220 285 295 286 245 210 278 276 279 315
300 315 313 329 338 49 101 119 134 260 300 252 309 303 285 296 306 284 237 300 310 280 270 270 286 306 318 313 142 350 195 216 209 218 253 263 285 102 142 189 276 111 340 318
286 297 301 309 321 350 122 162 157 191 262 276 244 261 303 266 274 275 303 340 323 343 250 274 279 278 347 320 344 330 172 168 218 243 262 270 283 252 200 243 347 324 327 315
277 281 286 293 300 307 179 225 183 218 251 282 257 242 244 264 240 255 347 300 171 270 270 312 341 305 359 290 294 207 258 286 196 228 244 262 58 312 290 318 306 312 308 302
266 269 271 277 287 288 293 246 171 181 229 271 286 272 262 250 246 301 233 302 295 310 303 356 277 279 314 324 308 238 293 315 299 242 271 313 312 309 312 307 295 290 290 287
260 257 262 268 277 275 248 232 187 214 281 286 276 235 211 223 229 214 232 217 236 234 22 278 281 276 237 285 277 291 277 292 260 311 280 298 303 300 297 291 290 294 299 296
260 249 252 267 273 275 267 226 175 184 274 286 278 310 283 260 199 196 215 228 119 293 210 249 248 261 196 268 295 280 284 308 283 273 284 300 272 287 291 294 292 294 297 299
257 246 242 264 279 284 286 215 210 215 239 297 291 304 249 229 196 215 216 220 228 245 273 237 241 237 267 246 261 244 286 315 285 287 299 288 286 292 296 303 301 300 302 294
252 232 234 276 281 292 6 282 168 200 189 260 294 323 273 297 275 260 218 198 190 200 201 234 236 206 205 251 259 84 335 325 310 279 290 288 286 299 322 311 305 308 309 305
242 170 244 274 271 196 209 323 57 175 151 246 287 283 272 308 290 184 126 163 177 166 225 238 246 227 210 255 275 335 330 316 309 303 305 310 316 312 313 314 314 324 306 300
149 120 272 283 264 252 258 233 181 163 209 226 278 284 287 11 317 307 147 167 208 188 239 224 94 31 325 282 336 326 317 316 317 322 319 311 311 311 321 324 324 311 300 299
106 288 285 146 158 187 234 181 171 148 290 295 273 289 309 0 299 279 268 253 244 143 240 109 100 59 43 308 303 319 318 312 303 312 316 324 318 322 321 324 315 310 313 309
100 262 206 212 185 251 133 169 158 178 202 216 251 255 262 300 323 291 299 220 273 259 116 89 105 103 330 312 303 311 315 323 325 329 335 330 329 332 331 321 313 309 309 306
111 191 218 64 311 108 174 201 232 162 214 207 236 234 269 164 277 298 230 307 253 260 92 236 105 19 345 330 336 333 332 330 329 327 324 331 337 334 331 326 323 323 322 323
173 131 92 148 177 188 211 197 190 216 231 184 211 237 216 239 262 264 268 288 293 26 334 231 62 25 337 339 336 335 336 335 335 335 337 347 347 351 334 328 333 334 334 337
148 161 163 190 163 207 212 184 182 214 192 191 203 250 3 188 259 266 303 299 2 290 11 48 52 340 340 334 335 332 334 337 336 337 346 353 348 348 346 341 341 344 354 356
196 171 189 214 186 227 196 174 153 131 155 162 202 115 31 56 352 329 286 4 296 32 31 357 347 343 337 331 333 333 329 333 333 338 349 352 355 356 347 353 358 358 7 6
211 192 215 208 219 89 132 111 123 111 114 157 136 114 55 36 42 13 315 18 53 21 346 308 329 332 331 324 330 329 330 332 332 337 350 350 355 358 357 9 10 9 7 7
233 231 229 169 165 141 155 133 121 127 121 134 113 106 84 62 48 55 50 87 162 331 324 319 322 323 320 324 325 327 327 333 334 335 355 352 356 354 356 3 15 15 12 16
216 234 213 231 109 137 122 143 124 133 183 129 131 111 111 130 97 106 139 119 307 320 318 320 320 322 321 328 323 329 333 340 338 347 357 358 356 2 1 4 9 12 10 17